Detroit Metro, MI

6:31 PM EDT on September 24, 2017 (GMT -0400)
Detroit Metro Wayne County

Weather History for KDTW - April, 2013

Change the Weather History Date:

Sunday, April 28, 2013

  Actual Average Record
Temperature  
Mean Temperature 53 °F 54 °F  
Max Temperature 55 °F 64 °F 84 °F (1986)
Min Temperature 50 °F 44 °F 28 °F (1934)
Degree Days  
Heating Degree Days 12 12  
Month to date heating degree days 545 458  
Since 1 July heating degree days 5763 5873  
Cooling Degree Days 0 0  
Month to date cooling degree days 0 0  
Year to date cooling degree days 0 0  
Growing Degree Days 2 (Base 50)    
Moisture  
Dew Point 47 °F    
Average Humidity 72    
Maximum Humidity 100    
Minimum Humidity 44    
Precipitation  
Precipitation 0.27 in 0.10 in 1.93 in (1936)
Month to date precipitation 5.29 2.70  
Year to date precipitation 12.31 8.96  
Snow  
Snow 0.00 in 0.00 in 2.00 in (1909)
Month to date snowfall 0.1 1.7  
Since 1 July snowfall 47.7 42.5  
Snow Depth 0.00 in    
Sea Level Pressure  
Sea Level Pressure 29.94 in    
Wind  
Wind Speed 4 mph (East)    
Max Wind Speed 12 mph    
Max Gust Speed 20 mph    
Visibility 6 miles    
Events Rain    
T = Trace of Precipitation, MM = Missing Value Source: NWS Daily Summary

Daily Weather History Graph

Daily Weather History Graph

Search for Another Location

Airport or City:

Trip Planner

Search our weather history database for the weather conditions in past years. The results will help you decide how hot, cold, wet, or windy it might be!

Date:

Astronomy

Apr. 28, 2013 Rise Set
Actual Time 6:32 AM EDT 8:29 PM EDT
Civil Twilight 6:02 AM EDT 9:00 PM EDT
Nautical Twilight 5:25 AM EDT 9:37 PM EDT
Astronomical Twilight 4:45 AM EDT 10:17 PM EDT
Moon No Moon Rise 8:46 AM EDT (4/28)
Length of Visible Light 14h 57m
Length of Day
13h 56m
Waning Gibbous, 89% of the Moon is Illuminated
Apr 28
Waning Gibbous
May 2
Last Quarter
May 9
New
May 18
First Quarter
May 25
Full

Hourly Weather History & Observations

Time (EDT) Temp. Dew Point Humidity Pressure Visibility Wind Dir Wind Speed Gust Speed Precip Events Conditions
12:53 AM 51.1 °F 30.9 °F 46% 30.11 in 10.0 mi NE 3.5 mph - N/A   Scattered Clouds
1:53 AM 52.0 °F 32.0 °F 47% 30.09 in 10.0 mi Calm Calm - N/A   Scattered Clouds
2:53 AM 52.0 °F 33.1 °F 49% 30.06 in 10.0 mi ENE 4.6 mph - N/A   Overcast
3:53 AM 51.1 °F 34.0 °F 52% 30.04 in 10.0 mi ENE 3.5 mph - N/A   Overcast
4:53 AM 51.1 °F 35.1 °F 54% 30.03 in 10.0 mi Calm Calm - N/A   Overcast
5:53 AM 51.1 °F 36.0 °F 56% 30.02 in 10.0 mi Calm Calm - N/A   Overcast
6:53 AM 51.8 °F 37.4 °F 58% 30.01 in 10.0 mi NE 4.6 mph - N/A   Overcast
7:53 AM 51.1 °F 37.9 °F 61% 30.01 in 10.0 mi ENE 3.5 mph - N/A   Overcast
8:53 AM 53.6 °F 41.0 °F 62% 30.01 in 10.0 mi ESE 4.6 mph - N/A   Overcast
9:53 AM 53.1 °F 45.0 °F 74% 29.99 in 9.0 mi East 4.6 mph - 0.01 in Rain Light Rain
10:42 AM 53.6 °F 48.2 °F 82% 29.98 in 8.0 mi East 4.6 mph - 0.04 in Rain Light Rain
10:53 AM 53.1 °F 48.9 °F 86% 29.98 in 8.0 mi ESE 5.8 mph - 0.05 in Rain Light Rain
11:53 AM 53.1 °F 51.1 °F 93% 29.96 in 7.0 mi East 9.2 mph - 0.07 in Rain Rain
12:07 PM 53.6 °F 51.8 °F 94% 29.95 in 7.0 mi East 5.8 mph - 0.02 in Rain Light Rain
12:25 PM 53.6 °F 51.8 °F 94% 29.95 in 7.0 mi East 3.5 mph - 0.04 in Rain Light Rain
12:53 PM 53.1 °F 52.0 °F 96% 29.95 in 6.0 mi East 8.1 mph 16.1 mph 0.05 in Rain Light Rain
1:53 PM 54.0 °F 53.1 °F 97% 29.93 in 9.0 mi ESE 9.2 mph - 0.02 in   Overcast
2:53 PM 54.0 °F 53.1 °F 97% 29.91 in 7.0 mi ESE 6.9 mph - N/A   Overcast
3:00 PM 53.6 °F 53.6 °F 100% 29.91 in 2.0 mi ESE 8.1 mph - N/A   Overcast
3:53 PM 54.0 °F 52.0 °F 93% 29.90 in 2.0 mi ESE 9.2 mph - 0.01 in Rain Light Rain
4:49 PM 55.4 °F 53.6 °F 94% 29.88 in 1.5 mi East 6.9 mph - 0.01 in Rain Light Rain
4:53 PM 55.0 °F 54.0 °F 96% 29.88 in 1.5 mi East 3.5 mph - 0.01 in Rain Light Rain
5:05 PM 53.6 °F 53.6 °F 100% 29.87 in 0.8 mi East 4.6 mph - 0.01 in Rain Light Rain
5:19 PM 53.6 °F 53.6 °F 100% 29.87 in 1.0 mi East 5.8 mph - 0.01 in Rain Light Rain
5:53 PM 55.0 °F 53.1 °F 93% 29.87 in 1.0 mi East 5.8 mph - 0.02 in   Overcast
6:53 PM 54.0 °F 53.1 °F 97% 29.86 in 1.0 mi East 5.8 mph - N/A   Overcast
7:01 PM 53.6 °F 53.6 °F 100% 29.86 in 0.8 mi East 5.8 mph - N/A   Overcast
7:12 PM 53.6 °F 53.6 °F 100% 29.86 in 0.8 mi East 4.6 mph - 0.00 in Rain Light Rain
7:53 PM 55.0 °F 53.1 °F 93% 29.86 in 0.8 mi East 5.8 mph - 0.01 in   Overcast
8:22 PM 55.4 °F 53.6 °F 94% 29.85 in 1.5 mi East 6.9 mph - N/A   Overcast
8:53 PM 55.0 °F 53.1 °F 93% 29.86 in 1.5 mi East 3.5 mph - N/A   Overcast
9:53 PM 55.0 °F 53.1 °F 93% 29.86 in 1.5 mi East 3.5 mph - 0.01 in   Overcast
10:53 PM 55.0 °F 53.1 °F 93% 29.86 in 1.5 mi Calm Calm - N/A   Overcast
11:53 PM 55.0 °F 53.1 °F 93% 29.85 in 1.5 mi Calm Calm - 0.01 in   Overcast